Regional Weather Roundup
Issued by NWS

Home | Current Version | Previous Version | Graphics & Text | Print | Product List | Glossary On
Versions: 1 2 3 4 5 6 7 8 9 10 11 12 13 14 15 16 17 18 19 20 21 22 23 24 25 26 27 28 29 30 31 32 33 34 35 36 37 38 39 40 41 42 43 44 45 46 47 48 49 50
230
ASUS43 KMPX 221710
RWRMN
WEATHER ROUNDUP FOR MINNESOTA
NATIONAL WEATHER SERVICE TWIN CITIES/CHANHASSEN MN
1200 PM CDT MON MAY 22 2017


NOTE: "FAIR" INDICATES FEW OR NO CLOUDS BELOW 12,000 FEET WITH NO
SIGNIFICANT WEATHER AND/OR OBSTRUCTIONS TO VISIBILITY. N/A MEANS
CURRENT SKY AND/OR WEATHER CONDITIONS ARE NOT AVAILABLE.

MNZ060>063-068>070-221800-
   Twin Cities Metro

CITY           SKY/WX    TMP DP  RH WIND       PRES   REMARKS
TWIN CITIES    MOSUNNY   61  42  49 W15G22    29.84F
ST PAUL        MOSUNNY   59  43  55 W14G22    29.85F
CRYSTAL        MOSUNNY   61  40  45 W14       29.84S
BLAINE         MOSUNNY   61  45  55 W14G22    29.84F
LAKEVILLE      SUNNY     61  46  59 W13G18    29.85S
EDEN PRAIRIE   MOSUNNY   62  45  53 W10       29.84F
SOUTH ST PAUL  SUNNY     61  42  49 W14G20    29.84F
LAKE ELMO      FAIR      59  43  55 W10G22    29.85S
$$
MNZ001>005-007-008-013>017-022>024-027-028-221800-
   Northwest Minnesota

CITY           SKY/WX    TMP DP  RH WIND       PRES   REMARKS
BEMIDJI        CLOUDY    50  42  75 W13       29.78S
HALLOCK        CLOUDY    52  45  76 N21       29.83R
ROSEAU         PTSUNNY   52  43  71 N14       29.79S
WARROAD        LGT RAIN  46  43  87 NW13      29.78S
THIEF RVR FALL CLOUDY    50  42  74 NW12      29.82S
CROOKSTON      CLOUDY    52  45  76 N13       29.84S
FOSSTON        DRIZZLE   45  43  93 NW10      29.82S
DETROIT LAKES  MOSUNNY   54  43  66 NW14G21   29.83S
MOORHEAD       MOSUNNY   57  45  62 NW18      29.85S
PARK RAPIDS    CLOUDY    54  40  59 W15G22    29.80S
MAHNOMEN       CLOUDY    51  43  73 NW16G22   29.82S
$$
MNZ006-009>011-018-025>026-221800-
   North Central Minnesota

CITY           SKY/WX    TMP DP  RH WIND       PRES   REMARKS
BAUDETTE       LGT RAIN  47  44  90 NW12      29.76R
FLAG ISLAND    CLOUDY    46  41  81 NW8       29.76S
INTL FALLS     CLOUDY    50  42  74 NW8       29.73R
WASKISH        CLOUDY    48  45  87 NW7       29.77S FOG
BIG FORK       LGT RAIN  46  45  93 W5        29.76R
LONGVILLE      CLOUDY    52  45  76 W8        29.79S
GRAND RAPIDS   CLOUDY    49  44  83 NW10      29.79S
CRANE LAKE     RAIN      46  45  93 NW3       29.74S
ORR            DRIZZLE   46  43  87 W5        29.72R
COOK           LGT RAIN  48  45  87 W10       29.74S
WALKER         CLOUDY    50  42  75 NW10G21   29.79S
$$
MNZ012-019>021-037-221800-
   Northeast Minnesota

CITY           SKY/WX    TMP DP  RH WIND       PRES   REMARKS
DULUTH         CLOUDY    50  44  80 W10       29.76S
ELY            CLOUDY    48  43  81 SW7       29.72S
HIBBING        CLOUDY    49  43  80 W8        29.75S
EVELETH        CLOUDY    50  43  76 W5        29.76S
DULUTH HARBOR  CLOUDY    52  46  82 W12G17    29.78R
TWO HARBORS    CLOUDY    54  46  76 W7        29.73S
SILVER BAY     CLOUDY    52  46  82 SW7       29.72R
GRAND MARAIS     N/A     43  41  93 W14       29.72R
G MARAIS ARPRT CLOUDY    46  41  81 CALM      29.71R
$$
MNZ029>031-032-039>041-046>048-054>057-064-221800-
   West Central Minnesota

CITY           SKY/WX    TMP DP  RH WIND       PRES   REMARKS
FERGUS FALLS   CLOUDY    55  45  67 NW16G22   29.83S
WHEATON        CLOUDY    57  41  54 NW8G16    29.89F
MORRIS         CLOUDY    55  45  67 W8        29.87S
ALEXANDRIA     CLOUDY    54  40  59 NW14      29.86S
ELBOW LAKE     FAIR      54  43  67 W12G18    29.86S
WADENA         CLOUDY    54  43  66 W16G23    29.82S
GLENWOOD       CLOUDY    55  43  62 W15       29.87R
APPLETON       MOSUNNY   57  43  58 N7        29.87S
BENSON         MOSUNNY   57  41  54 N9G16     29.89F
ORTONVILLE     MOSUNNY   55  43  62 NW6       29.88S
MADISON        SUNNY     61  48  63 NW5       29.87F
WILLMAR        FAIR      57  46  67 NW7       29.88F
$$
MNZ033>034-036-042>043-049>051-058-059-221800-
   Central Minnesota

CITY           SKY/WX    TMP DP  RH WIND       PRES   REMARKS
ST CLOUD       CLOUDY    57  44  62 NW10      29.84S
SAUK CENTRE    FAIR      55  41  60 NW16      29.85S
PAYNESVILLE    PTSUNNY   55  42  62 W10G17    29.87S
AITKIN         CLOUDY    52  43  71 W7        29.79S
PINE RIVER     CLOUDY    52  43  71 NW5       29.84S
BRAINERD       PTSUNNY   53  43  68 NW9       29.81F
STAPLES        PTSUNNY   54  41  62 W14G21    29.82F
LONG PRAIRIE   FAIR      54  41  62 W10       29.84F
LITTLE FALLS   CLOUDY    54  41  62 W7        29.83F
LITCHFIELD     MOSUNNY   61  45  55 NW13G20   29.87S
BUFFALO        MOSUNNY   58  41  54 W8G17     29.86F
MAPLE LAKE     MOSUNNY   59  45  60 NW12      29.86S
HUTCHINSON     CLOUDY    59  48  66 W12       29.88S
$$
MNZ037-044-045-052-053-221800-
   East Central Minnesota

CITY           SKY/WX    TMP DP  RH WIND       PRES   REMARKS
PRINCETON      PTSUNNY   57  45  62 W8        29.84S
MORA           PTSUNNY   52  41  66 NW9       29.85R
CAMBRIDGE      CLOUDY    57  43  58 W10G17    29.82S
RUSH CITY      CLOUDY    54  44  70 W5        29.83S
MOOSE LAKE     CLOUDY    50  43  76 W9G17     29.79R
HINCKLEY       CLOUDY    52  45  76 W12G21    29.82S
CLOQUET        CLOUDY    48  43  81 W8        29.78R
MCGREGOR       CLOUDY    48  45  87 W6        29.80S
$$
MNZ071>073-080-081-089-090-097-098-221800-
   Southwest Minnesota

CITY           SKY/WX    TMP DP  RH WIND       PRES   REMARKS
MONTEVIDEO     MOSUNNY   61  48  63 NW7       29.87F
CANBY          SUNNY     60  48  64 CALM      29.89S
MARSHALL       SUNNY     58  47  66 NW5       29.88S
REDWOOD FALLS  SUNNY     61  44  53 NW8       29.86F
OLIVIA         SUNNY     59  46  63 NW7       29.87S
PIPESTONE      MOSUNNY   64  37  36 SW5       29.87S
WINDOM         SUNNY     63  46  55 N7        29.87S
WORTHINGTON    SUNNY     62  48  60 E5        29.88S
JACKSON        SUNNY     61  43  51 CALM      29.88S
TRACY          SUNNY     61  48  64 N7        29.88S
SLAYTON        SUNNY     61  44  54 NW5       29.89R
$$
MNZ065>067-074>077-082>085-091>093-221800-
   South Central Minnesota

CITY           SKY/WX    TMP DP  RH WIND       PRES   REMARKS
MANKATO        SUNNY     60  43  53 N6        29.87S
NEW ULM        SUNNY     61  45  55 W6        29.87S
ST JAMES       SUNNY     63  46  55 NW7       29.88S
FAIRMONT       SUNNY     62  50  64 N8        29.87F
GLENCOE        MOSUNNY   60  51  72 W12G20    29.86S
FARIBAULT      SUNNY     63  46  55 SW6       29.86F
OWATONNA       SUNNY     63  46  55 W6        29.86F
WASECA         SUNNY     61  46  59 NW8       29.87F
ALBERT LEA     SUNNY     64  45  48 NW5       29.87S
$$
MNZ078>079-086>088-094>096-221800-
   Southeast Minnesota

CITY           SKY/WX    TMP DP  RH WIND       PRES   REMARKS
ROCHESTER      SUNNY     62  49  62 W7        29.88F
RED WING       SUNNY     63  41  45 W10       29.84F
STANTON        SUNNY     62  45  55 W13       29.84F
DODGE CENTER   LGT RAIN  61  43  51 W7        29.86S
WINONA         SUNNY     63  45  51 SW7       29.86F
AUSTIN         SUNNY     63  45  51 CALM      29.87S
PRESTON        SUNNY     61  47  60 NW7       29.88S
$$
ABBREVIATIONS USED IN REMARKS
   TC - TEMPERATURES IN CELSIUS
  WCI - WIND CHILL INDEX
   HX - HEAT INDEX
  VSB - VISIBILITY
$$




USA.gov is the U.S. government's official web portal to all federal, state and local government web resources and services.